Flag for Germany Weather past 2 weeks in Ludwigshafen, Rhineland-Palatinate, Germany

Now
54 °F

Passing clouds.


Feels Like: 52 °F
Forecast: 43 / 62 °F
Wind: 6 mph from North

Location: Baden Wurttemberg - Neuostheim

Current Time: May 26, 2015 at 8:53:36 AM

Latest Report: May 26, 2015 at 8:20 AM


Visibility: N/A

Pressure: 30.04 "Hg

Humidity: 77%

Dew point: 46 °F

Location of LudwigshafenLocation

Historic Weather in Ludwigshafen — Graph

°F

Ludwigshafen temperature yesterday

Maximum temperature yesterday: 68 °F (at 10:50 AM)
Minimum temperature yesterday: 57 °F (at 6:50 PM)
Average temperature yesterday: 64 °F

Past Weeks' High & Low Weather Summary

 TemperatureHumidityPressure
High86 °F (May 12, 3:50 PM)100% (May 15, 5:50 AM)30.33 "Hg (May 15, 5:50 AM)
Low41 °F (May 22, 5:20 AM)25% (May 18, 6:20 PM)29.71 "Hg (May 18, 6:50 PM)
Average64 °F51%30.05 "Hg
* Reported May 11 7:20 AM — May 26 7:50 AM, Ludwigshafen, Weather by CustomWeather, © 2015

Note: Actual official high and low records may vary slightly from our data, if they occured in-between our weather recording intervals... More about our weather records

Advertising

Ludwigshafen weather history for previous 24 hours

 ConditionsComfort  
Time TempWeatherWind HumidityBarometerVisibility
7:50 AM
Tue, May 26
52 °FSunny.6 mph82%30.04 "Hg10 mi
7:20 AM52 °FSunny.6 mph82%30.04 "Hg10 mi
6:50 AM52 °FPassing clouds.7 mph82%30.01 "HgN/A
6:20 AM52 °FClear.7 mph82%30.01 "Hg10 mi
5:50 AM52 °FClear.6 mph88%30.01 "Hg10 mi
5:20 AM52 °FClear.5 mph88%30.01 "Hg10 mi
7:20 PM
Mon, May 25
57 °FBroken clouds.6 mph82%29.95 "HgN/A
6:50 PM57 °FSprinkles. Broken clouds.12 mph82%29.95 "HgN/A
6:20 PM61 °FPartly sunny.12 mph68%29.92 "HgN/A
5:50 PM63 °FPartly sunny.9 mph59%29.92 "HgN/A
5:20 PM63 °FPartly sunny.9 mph64%29.92 "HgN/A
4:50 PM63 °FBroken clouds.10 mph59%29.92 "HgN/A
4:20 PM64 °FScattered showers. Partly sunny.13 mph52%29.92 "HgN/A
3:50 PM66 °FPartly sunny.8 mph49%29.92 "HgN/A
3:20 PM66 °FPartly sunny.6 mph52%29.92 "HgN/A
2:50 PM66 °FBroken clouds.3 mph60%29.92 "HgN/A
2:20 PM66 °FBroken clouds.3 mph64%29.92 "HgN/A
1:50 PM61 °FThundershowers. Broken clouds.8 mph83%29.92 "HgN/A
1:20 PM64 °FScattered showers. Broken clouds.7 mph73%29.92 "HgN/A
12:50 PM64 °FScattered showers. Partly sunny.6 mph68%29.95 "HgN/A
12:20 PM64 °FScattered showers. Broken clouds.3 mph64%29.95 "HgN/A
11:50 AM64 °FThundershowers. Partly sunny.8 mph73%29.95 "HgN/A
11:20 AM66 °FScattered showers. Partly sunny.3 mph60%29.95 "HgN/A
10:50 AM68 °FBroken clouds.2 mph56%29.95 "HgN/A
10:20 AM66 °FSunny.3 mph60%29.95 "Hg10 mi
9:50 AM64 °FSunny.3 mph64%29.98 "Hg10 mi
9:20 AM64 °FSunny.2 mph64%29.98 "Hg10 mi
8:50 AM64 °FSunny.2 mph68%29.98 "Hg10 mi
8:20 AM63 °FSunny.1 mph68%29.98 "Hg10 mi
Weather by CustomWeather, © 2015

See weather overviewHow to use our weather pages